Red Oak, IA

12:51 AM CST on February 20, 2018 (GMT -0600)
Red Oak Municipal

Weather History for KRDK - February, 2014

Change the Weather History Date:

Tuesday, February 25, 2014

  Actual Average Record
Temperature  
Mean Temperature 16 °F -  
Max Temperature 21 °F 41 °F 62 °F (1998)
Min Temperature 10 °F 20 °F -4 °F (2003)
Degree Days  
Heating Degree Days 50    
Moisture  
Dew Point 5 °F    
Average Humidity 69    
Maximum Humidity 93    
Minimum Humidity 53    
Precipitation  
Precipitation 0.00 in - - ()
Sea Level Pressure  
Sea Level Pressure 30.40 in    
Wind  
Wind Speed 12 mph (North)    
Max Wind Speed 20 mph    
Max Gust Speed 25 mph    
Visibility 10 miles    
Events      
Averages and records for this station are not official NWS values.
T = Trace of Precipitation, MM = Missing Value Source: NWS Daily Summary

Daily Weather History Graph

Daily Weather History Graph

Search for Another Location

Airport or City:

Trip Planner

Search our weather history database for the weather conditions in past years. The results will help you decide how hot, cold, wet, or windy it might be!

Date:

Astronomy

Feb. 25, 2014 Rise Set
Actual Time 7:01 AM CST 6:07 PM CST
Civil Twilight 6:33 AM CST 6:35 PM CST
Nautical Twilight 6:01 AM CST 7:07 PM CST
Astronomical Twilight 5:29 AM CST 7:38 PM CST
Moon 3:58 AM CST (2/25) 2:12 PM CST (2/25)
Length of Visible Light 12h 01m
Length of Day
11h 06m
Waning Crescent, 18% of the Moon is Illuminated
Feb 25
Waning Crescent
Mar 1
New
Mar 8
First Quarter
Mar 16
Full
Mar 23
Last Quarter

Hourly Weather History & Observations

Time (CST) Temp. Windchill Dew Point Humidity Pressure Visibility Wind Dir Wind Speed Gust Speed Precip Events Conditions
12:15 AM 21.2 °F 12.6 °F 17.6 °F 86% 30.30 in 10.0 mi NE 6.9 mph - N/A   Overcast
12:35 AM 19.4 °F 10.4 °F 17.6 °F 93% 30.31 in 10.0 mi NE 6.9 mph - N/A   Overcast
12:55 AM 19.4 °F 9.5 °F 17.6 °F 93% 30.32 in 10.0 mi NNE 8.1 mph - N/A   Overcast
1:15 AM 19.4 °F 8.6 °F 17.6 °F 93% 30.33 in 10.0 mi NNE 9.2 mph - N/A   Overcast
1:30 AM 19.4 °F 10.4 °F 15.8 °F 86% 30.33 in 10.0 mi NE 6.9 mph - N/A   Overcast
1:55 AM 19.4 °F 8.6 °F 15.8 °F 86% 30.34 in 10.0 mi NE 9.2 mph - N/A   Overcast
2:15 AM 17.6 °F 6.4 °F 14.0 °F 86% 30.34 in 10.0 mi NE 9.2 mph - N/A   Overcast
3:50 AM 15.8 °F 0.9 °F 12.2 °F 86% 30.37 in 10.0 mi North 15.0 mph - N/A   Overcast
4:15 AM 14.0 °F -2.0 °F 8.6 °F 79% 30.37 in 10.0 mi North 16.1 mph - N/A   Overcast
4:35 AM 14.0 °F -2.0 °F 8.6 °F 79% 30.38 in 10.0 mi North 16.1 mph - N/A   Overcast
4:55 AM 12.2 °F -3.7 °F 8.6 °F 85% 30.37 in 10.0 mi North 15.0 mph 21.9 mph N/A   Overcast
5:15 AM 12.2 °F -3.1 °F 8.6 °F 85% 30.38 in 10.0 mi North 13.8 mph - N/A   Overcast
5:35 AM 12.2 °F -4.3 °F 8.6 °F 85% 30.38 in 10.0 mi North 16.1 mph - N/A   Overcast
5:55 AM 10.4 °F -6.0 °F 6.8 °F 85% 30.38 in 10.0 mi North 15.0 mph 23.0 mph N/A   Overcast
6:15 AM 10.4 °F -6.6 °F 6.8 °F 85% 30.38 in 10.0 mi North 16.1 mph - N/A   Overcast
6:30 AM 10.4 °F -4.8 °F 5.0 °F 79% 30.39 in 10.0 mi NNE 12.7 mph 19.6 mph N/A   Overcast
6:55 AM 10.4 °F -6.0 °F 5.0 °F 79% 30.38 in 10.0 mi NNE 15.0 mph 20.7 mph N/A   Overcast
7:15 AM 10.4 °F -4.8 °F 5.0 °F 79% 30.38 in 10.0 mi North 12.7 mph 19.6 mph N/A   Overcast
7:35 AM 10.4 °F -5.4 °F 5.0 °F 79% 30.39 in 10.0 mi NNE 13.8 mph - N/A   Overcast
7:55 AM 10.4 °F -7.2 °F 5.0 °F 79% 30.40 in 10.0 mi North 17.3 mph - N/A   Overcast
8:15 AM 10.4 °F -5.4 °F 5.0 °F 79% 30.40 in 10.0 mi North 13.8 mph - N/A   Mostly Cloudy
8:35 AM 10.4 °F -6.6 °F 5.0 °F 79% 30.41 in 10.0 mi North 16.1 mph - N/A   Scattered Clouds
8:55 AM 10.4 °F -5.4 °F 5.0 °F 79% 30.41 in 10.0 mi North 13.8 mph - N/A   Scattered Clouds
9:15 AM 10.4 °F -5.4 °F 5.0 °F 79% 30.40 in 10.0 mi North 13.8 mph - N/A   Scattered Clouds
9:30 AM 10.4 °F -6.6 °F 3.2 °F 73% 30.40 in 10.0 mi North 16.1 mph 21.9 mph N/A   Partly Cloudy
9:55 AM 12.2 °F -4.3 °F 3.2 °F 67% 30.41 in 10.0 mi North 16.1 mph 23.0 mph N/A   Partly Cloudy
10:10 AM 12.2 °F -3.7 °F -0.4 °F 57% 30.42 in 10.0 mi North 15.0 mph 21.9 mph N/A   Clear
10:35 AM 12.2 °F -3.1 °F 3.2 °F 67% 30.43 in 10.0 mi North 13.8 mph - N/A   Mostly Cloudy
11:15 AM 12.2 °F -3.1 °F -0.4 °F 57% 30.45 in 10.0 mi North 13.8 mph - N/A   Mostly Cloudy
11:35 AM 12.2 °F -2.5 °F -0.4 °F 57% 30.45 in 10.0 mi NNW 12.7 mph - N/A   Overcast
11:55 AM 12.2 °F -3.1 °F -0.4 °F 57% 30.46 in 10.0 mi North 13.8 mph - N/A   Mostly Cloudy
12:15 PM 10.4 °F -4.1 °F -2.2 °F 57% 30.45 in 10.0 mi North 11.5 mph - N/A   Mostly Cloudy
12:35 PM 12.2 °F -1.8 °F -0.4 °F 57% 30.44 in 10.0 mi NNW 11.5 mph - N/A   Overcast
12:55 PM 12.2 °F -1.0 °F -0.4 °F 57% 30.44 in 10.0 mi North 10.4 mph - N/A   Mostly Cloudy
1:15 PM 12.2 °F -0.2 °F -0.4 °F 57% 30.43 in 10.0 mi NNW 9.2 mph 15.0 mph N/A   Scattered Clouds
1:35 PM 12.2 °F 1.7 °F 1.4 °F 62% 30.41 in 9.0 mi NNW 6.9 mph - N/A   Mostly Cloudy
1:55 PM 14.0 °F 2.0 °F 1.4 °F 57% 30.40 in 10.0 mi NW 9.2 mph 16.1 mph N/A   Overcast
2:15 PM 14.0 °F 0.5 °F -0.4 °F 53% 30.40 in 10.0 mi NNW 11.5 mph - N/A   Mostly Cloudy
2:35 PM 14.0 °F -0.2 °F 1.4 °F 57% 30.39 in 10.0 mi NW 12.7 mph - N/A   Mostly Cloudy
2:55 PM 15.8 °F 2.1 °F 3.2 °F 58% 30.39 in 10.0 mi NW 12.7 mph - N/A   Scattered Clouds
3:15 PM 15.8 °F 2.1 °F 1.4 °F 53% 30.38 in 10.0 mi NW 12.7 mph - N/A   Clear
3:35 PM 15.8 °F 2.1 °F 3.2 °F 58% 30.38 in 10.0 mi North 12.7 mph - N/A   Clear
3:55 PM 15.8 °F 1.4 °F 1.4 °F 53% 30.38 in 10.0 mi NNW 13.8 mph 20.7 mph N/A   Partly Cloudy
4:10 PM 15.8 °F 1.4 °F 3.2 °F 58% 30.37 in 10.0 mi NNW 13.8 mph - N/A   Mostly Cloudy
4:40 PM 15.8 °F 1.4 °F 3.2 °F 58% 30.37 in 10.0 mi NNW 13.8 mph 19.6 mph N/A   Mostly Cloudy
4:55 PM 15.8 °F 2.7 °F 3.2 °F 58% 30.37 in 10.0 mi NW 11.5 mph - N/A   Mostly Cloudy
5:15 PM 14.0 °F -0.2 °F 3.2 °F 62% 30.37 in 10.0 mi NW 12.7 mph - N/A   Partly Cloudy
5:30 PM 14.0 °F 1.2 °F 5.0 °F 67% 30.37 in 10.0 mi NW 10.4 mph 17.3 mph N/A   Mostly Cloudy
5:55 PM 14.0 °F -2.0 °F 3.2 °F 62% 30.38 in 10.0 mi NW 16.1 mph - N/A   Overcast
6:15 PM 14.0 °F -1.4 °F 3.2 °F 62% 30.38 in 10.0 mi NW 15.0 mph - N/A   Overcast
6:35 PM 14.0 °F -0.8 °F 3.2 °F 62% 30.38 in 10.0 mi NW 13.8 mph - N/A   Overcast
6:55 PM 14.0 °F -3.4 °F 3.2 °F 62% 30.40 in 10.0 mi NW 19.6 mph - N/A   Overcast
7:15 PM 14.0 °F -1.4 °F 3.2 °F 62% 30.42 in 10.0 mi NW 15.0 mph 21.9 mph N/A   Overcast
7:35 PM 14.0 °F -0.8 °F 3.2 °F 62% 30.43 in 10.0 mi NW 13.8 mph - N/A   Overcast
7:55 PM 14.0 °F -1.4 °F 3.2 °F 62% 30.44 in 10.0 mi NW 15.0 mph 24.2 mph N/A   Overcast
8:15 PM 14.0 °F -1.4 °F 3.2 °F 62% 30.44 in 10.0 mi NW 15.0 mph - N/A   Overcast
8:35 PM 14.0 °F -2.0 °F 3.2 °F 62% 30.45 in 10.0 mi NNW 16.1 mph - N/A   Overcast
8:55 PM 14.0 °F -2.5 °F 3.2 °F 62% 30.45 in 10.0 mi NNW 17.3 mph 24.2 mph N/A   Mostly Cloudy
10:15 PM 12.2 °F -3.1 °F 1.4 °F 62% 30.47 in 10.0 mi NNW 13.8 mph 25.3 mph N/A   Overcast
10:35 PM 12.2 °F -4.8 °F 1.4 °F 62% 30.47 in 10.0 mi NNW 17.3 mph 25.3 mph N/A   Overcast